Flag for Germany Weather past 2 weeks in Cuxhaven, Lower Saxony, Germany

Now
72 °F

Scattered showers. Mostly cloudy.


Feels Like: 74 °F
Forecast: 60 / 69 °F
Wind: 8 mph from Northwest

Location: Nordholz

Current Time: Aug 4, 2015 at 5:02:03 PM

Latest Report: Aug 4, 2015 at 4:20 PM


Visibility: N/A

Pressure: 29.89 "Hg

Humidity: 73%

Dew point: 63 °F

Location of CuxhavenLocation

Historic Weather in Cuxhaven — Graph

°F

Cuxhaven temperature yesterday

Maximum temperature yesterday: 86 °F (at 5:20 PM)
Minimum temperature yesterday: 54 °F (at 5:20 AM)
Average temperature yesterday: 70 °F

Past Weeks' High & Low Weather Summary

 TemperatureHumidityPressure
High86 °F (Aug 3, 5:20 PM)100% (Jul 25, 3:20 AM)30.15 "Hg (Jul 25, 3:20 AM)
Low45 °F (Aug 1, 5:20 AM)40% (Aug 3, 5:20 PM)29.42 "Hg (Jul 25, 11:58 AM)
Average61 °F78%29.82 "Hg
* Reported Jul 20 3:20 PM — Aug 4 3:20 PM, Cuxhaven, Weather by CustomWeather, © 2015

Note: Actual official high and low records may vary slightly from our data, if they occured in-between our weather recording intervals... More about our weather records

Advertising

Cuxhaven weather history for previous 24 hours

 ConditionsComfort  
Time TempWeatherWind HumidityBarometerVisibility
3:20 PM
Tue, Aug 4
73 °FScattered showers. Mostly cloudy.7 mph69%29.89 "HgN/A
2:46 PM73 °FScattered showers. Mostly cloudy.9 mph69%29.89 "HgN/A
2:20 PM75 °FMostly cloudy.7 mph65%29.86 "HgN/A
1:20 PM77 °FMostly cloudy.1 mph57%29.86 "HgN/A
12:20 PM75 °FPartly sunny.13 mph61%29.86 "HgN/A
11:20 AM73 °FPartly sunny.15 mph65%29.86 "HgN/A
10:20 AM72 °FPartly sunny.10 mph65%29.89 "HgN/A
9:20 AM72 °FBroken clouds.9 mph65%29.89 "HgN/A
8:20 AM70 °FPartly sunny.14 mph69%29.89 "HgN/A
7:20 AM66 °FPartly sunny.10 mph68%29.86 "HgN/A
6:20 AM64 °FPassing clouds.8 mph73%29.86 "HgN/A
5:20 AM63 °FPassing clouds.8 mph83%29.86 "HgN/A
4:20 AM64 °FPassing clouds.7 mph68%29.89 "HgN/A
3:20 AM66 °FPassing clouds.6 mph60%29.92 "HgN/A
2:20 AM66 °FPassing clouds.1 mph60%29.92 "HgN/A
1:20 AM68 °FPassing clouds.3 mph53%29.95 "HgN/A
12:20 AM72 °FPassing clouds.6 mph61%29.95 "HgN/A
11:20 PM
Mon, Aug 3
73 °FPassing clouds.9 mph61%29.92 "HgN/A
10:20 PM75 °FPassing clouds.7 mph61%29.92 "HgN/A
9:20 PM77 °FPartly sunny.6 mph61%29.92 "HgN/A
8:20 PM81 °FScattered clouds.5 mph58%29.92 "HgN/A
7:20 PM84 °FScattered clouds.5 mph45%29.92 "HgN/A
6:20 PM86 °FScattered clouds.8 mph40%29.92 "HgN/A
5:20 PM86 °FScattered clouds.9 mph40%29.95 "HgN/A
Weather by CustomWeather, © 2015

See weather overviewHow to use our weather pages